Flag for Philippines Weather past 2 weeks in Olongapo, Philippines

Now
86 °F

Passing clouds.


Feels Like: 92 °F
Forecast: 80 / 94 °F
Wind: 7 mph from North

Location: Subic Bay Weather Station


UV Index: 10 (Very high)

Visibility: N/A


Pressure: 29.77 "Hg

Humidity: 62%

Dew point: 72 °F

Location of OlongapoLocation

Historic Weather in Olongapo

°F

Olongapo temperature yesterday

Maximum temperature yesterday: 93 °F (at 4:00 PM)
Minimum temperature yesterday: 79 °F (at 4:00 AM)
Average temperature yesterday: 86 °F

Past Weeks' High & Low Weather Summary

 TemperatureHumidityPressure
High99 °F (Apr 7, 3:00 PM)94% (Apr 14, 11:00 PM)29.95 "Hg (Apr 14, 11:00 PM)
Low77 °F (Apr 6, 6:00 AM)33% (Apr 7, 3:00 PM)29.74 "Hg (Apr 10, 3:00 PM)
Average85 °F67%29.82 "Hg
* Reported Apr 5 7:00 PM — Apr 20 7:00 PM, Olongapo, Weather by CustomWeather, © 2014

Note: Actual official high and low records may vary slightly from our data, if they occured in-between our weather recording intervals... More about our weather records

Advertising

Historic Weather Conditions — Data for Previous 24 hours

 ConditionsComfort  
Time TempWeatherWind HumidityBarometerVisibility
7:00 PM
Apr 20
86 °FPassing clouds.8 mph66%29.77 "HgN/A
6:00 PM88 °FPartly sunny.6 mph62%29.77 "HgN/A
5:00 PM91 °FPartly sunny.3 mph59%29.77 "HgN/A
4:00 PM91 °FPartly sunny.7 mph59%29.74 "HgN/A
3:00 PM90 °FPartly sunny.10 mph59%29.74 "HgN/A
2:00 PM90 °FScattered clouds.10 mph59%29.77 "HgN/A
1:00 PM90 °FScattered clouds.12 mph59%29.77 "HgN/A
12:00 PM88 °FScattered clouds.13 mph66%29.80 "HgN/A
11:00 AM91 °FPassing clouds.7 mph59%29.80 "HgN/A
10:00 AM90 °FPassing clouds.5 mph55%29.80 "HgN/A
9:00 AM88 °FPassing clouds.3 mph59%29.80 "HgN/A
8:00 AM84 °FPassing clouds.5 mph66%29.80 "HgN/A
7:00 AM81 °FPartly sunny.2 mph79%29.80 "HgN/A
6:00 AM81 °FPartly sunny.5 mph79%29.77 "HgN/A
5:00 AM81 °FPassing clouds.3 mph74%29.77 "HgN/A
2:00 AM84 °FPassing clouds.5 mph70%29.77 "HgN/A
12:00 AM84 °FPassing clouds.7 mph70%29.80 "HgN/A
11:00 PM
Apr 19
84 °FPassing clouds.5 mph70%29.83 "HgN/A
10:00 PM84 °FPassing clouds.6 mph70%29.83 "HgN/A
9:00 PM84 °FPassing clouds.8 mph70%29.80 "HgN/A
8:00 PM84 °FPassing clouds.8 mph70%29.77 "HgN/A
Weather by CustomWeather, © 2014

See weather overview